SCP
0 0 0 0 0 0 0 0 0 0 0 0 0 -0 0 0 0 0 0 0 0 0 0 0 0 0 0 0 0 0 0 0 0 0 0 0 0 0
0 0 0 0 0 0 0 0 0 0 0 0 0 0 0 0 0 0 0 0 0 0 0 0 0 0 0 0 0 0 0 0 0 0 0 0 0 0
0 0 0 0 0 0 0 0 0 0 0 0 0 0 0 0 0 0 0 0 0 0 0 0 0 0 0 0 0 0 0 0 0 0 0 0 0 0
-0 -0 0 0 0 0 0 0 0 0 0 0 0 0 0 0 0 0 0 0 0 0 0 0 0 0 0 0 0 0 0 0 0 0 0 0 0 0
0 0 0 0 0 0 0 0 0 0 0 0 0 0 0 0 0 0 0 0 0 0 0 0 0 0 0 0 0 0 0 0 0 0 0 0 0 0
0 0 0 0 0 0 0 0 0 0 0 0 0 0 0 0 0 0 0 0 0 0 0 0 0 0 0 0 0 0 0 0 0 0 0 0 0 0
0 0 0 0 0 0 0 0 0 0 0 0 0 0 0 0 0 0 0 0 0 0 0 0 0 0 0 0 0 0 0 0 0 0 0 0 0 0
0 0 0 0 0 0 0 0 0 0 0 0 0 0 0 0 0 0 0 0 0 0 0 0 0 0 0 0 0 0 0 0 0 0 0 0 0 0
0 0 0 0 0 0 0 0 0 0 0 0 0 0 0 0 0 0 0 0 0 0 0 0 0 0 0 0 0 0 0 0 0 0 0 0 0 0
0 0 0 0 0 0 0 0 0 0 0 0 0 0 0 0 0 0 0 0 0 0 0 0 0 0 0 0 0 0 0 0 0 0 0 0 0 0
0 0 0 0 0 0 0 0 0 0 0 0 0 0 0 0 0 0 0 0 0 0 0 0 0 0 0 0 0 0 0 0 0 0 0 0 0 0
0 0 0 0 0 0 0 0 0 0 0 0 0 0 0 0 0 0 0 0 0 0 0 0 0 0 0 0 0 0 0 0 0 0 0 0 0 0
0 0 0 0 0 0 0 0 0 0 0 0 0 0 0 0 0 0 0 0 0 0 0 0 0 0 0 0 0 0 0 0 0 0 0 0 0 0
0 0 0 0 0 0 0 0 0 0 0 0 0 0 0 0 0 0 0 0 0 0 0 0 0 0 0 0 0 0 0 0 0 0 0 0 0 0
0 0 0 0 0 0 0 0 0 0 0 0 0 0 0 0 0 0 0 0 0 0 0 0 0 0 0 0 0 0 0 0 0 0 0 0 0 0
0 0 0 0 0 0 0 0 0 0 0 0 0 0 0 0 0 0 0 0 0 0 0 0 0 0 0 0 0 0 0 0 0 0 0 0 0 0
0 0 0 0 0 0 0 0 0 0 0 0 0 0 0 0 0 0 0 0 0 0 0 0 0 0 0 0 0 0 0 0 0 0 0 0 0 0
0 0 0 0 0 0 0 0 0 0 0 0 0 0 0 0 0 0 0 0 0 0 0 0 0 0 0 0 0 0 0 0 0 0 0 0 0 0
0 0 0 0 0 0 0 0 0 0 0 0 0 0 0 0 0 0 0 0 0 0 0 0 0 0 0 0 0 0 0 0 0 0 0 0 0 0
0 0 0 0 0 0 0 0 0 0 0 0 0 0 0 0 0 0 0 0 0 0 0 0 0 0 0 0 0 0 0 0 0 0 0 0 0 0
0 0 0 0 0 0 0 0 0 0 0 0 0 0 0 0 0 0 0 0 0 0 0 0 0 0 0 0 0 0 0 0 0 0 0 0 0 0
0 0 0 0 0 0 0 0 0 0 0 0 0 0 0 0 0 0 0 0 0 0 0 0 0 0 0 0 0 0 0 0 0 0 0 0 0 0
0 0 0 0 0 0 0 0 0 0 0 0 0 0 0 0 0 0 0 0 0 0 0 0 0 0 0 0 0 0 0 0 0 0 0 0 0 0
Wind_Speed
5 5 4 4 4 4 4 4 4 8 10 5 3 3 4 5 11 8 7 16 21 22 23 22 22 23 23 23 23 22 22 21 20 19 18 18 17 16
5 6 6 5 5 5 5 5 5 6 9 5 6 6 7 7 12 9 9 18 20 22 23 24 24 24 25 25 24 24 24 23 22 21 20 19 19 18
6 7 8 7 7 5 5 6 7 7 12 11 9 8 8 8 9 8 8 9 9 19 23 25 26 25 25 26 26 25 25 24 23 23 22 21 20 20
9 9 10 8 8 7 7 8 8 8 11 16 11 10 10 9 9 10 9 8 8 17 23 25 26 27 26 26 27 25 24 24 23 23 23 23 22 21
10 12 12 11 12 9 9 10 9 10 10 13 13 9 10 8 9 9 9 9 9 14 21 24 26 27 28 28 28 26 23 22 22 21 23 23 23 23
11 11 12 12 13 12 12 11 10 11 11 12 13 10 10 9 9 9 9 7 9 8 15 17 20 24 29 30 27 23 22 24 25 24 22 22 22 23
13 12 13 16 20 18 15 12 12 11 11 12 14 13 10 8 10 7 11 8 9 8 9 9 9 10 14 22 24 24 25 26 26 25 23 22 23 22
15 14 14 15 18 22 24 24 22 17 13 13 15 16 15 10 8 9 11 11 11 4 8 10 8 12 11 10 20 26 28 29 28 27 26 25 25 24
15 15 13 12 14 15 19 23 21 24 25 19 19 19 18 14 13 14 13 14 15 7 5 10 8 12 9 12 25 28 28 29 30 29 29 28 27 25
14 15 16 16 15 18 17 17 17 16 19 16 16 18 17 16 15 18 18 17 17 10 9 14 9 11 8 9 22 28 29 29 30 31 31 30 29 27
14 15 16 16 22 26 20 17 18 17 21 27 29 28 31 31 25 15 14 15 18 15 10 14 13 8 8 10 15 26 29 30 30 31 31 31 30 27
12 14 18 22 26 28 20 17 19 18 16 17 21 24 22 22 26 19 15 16 16 15 11 13 11 6 7 8 10 11 17 25 31 31 32 32 31 19
12 12 13 25 29 30 28 20 24 25 18 17 16 15 15 14 14 15 15 15 17 17 9 10 11 9 9 5 5 9 11 12 15 20 28 33 33 26
13 13 15 28 32 33 27 27 33 29 15 13 13 13 13 13 13 14 17 18 19 22 17 15 13 12 11 10 6 5 9 10 12 12 12 23 30 34
14 23 28 32 31 23 25 31 25 15 13 13 14 14 14 14 14 13 15 17 20 22 21 21 19 14 13 13 8 5 6 9 11 12 12 13 15 16
14 17 24 25 23 22 18 16 11 11 13 14 15 14 13 12 13 13 13 13 15 16 19 21 21 21 16 13 10 9 8 8 11 12 12 12 13 13
15 9 9 10 11 10 11 11 11 11 12 12 13 13 13 13 14 13 13 13 15 16 14 13 16 18 19 14 11 12 11 9 9 12 13 13 14 15
13 7 9 10 11 12 12 13 13 12 12 13 13 13 13 13 14 13 13 14 15 14 13 11 11 12 13 16 17 13 12 11 10 11 12 12 13 13
6 7 8 10 11 12 12 13 14 14 14 13 13 13 13 13 13 13 13 13 13 12 12 10 11 12 13 12 11 15 12 10 9 10 11 11 11 11
4 7 9 10 10 11 12 13 14 14 13 13 13 12 12 12 13 13 12 13 12 12 11 9 10 12 13 9 5 4 12 11 10 11 10 8 5 8
8 8 8 9 10 11 12 12 13 14 15 14 13 13 12 11 12 12 12 14 12 10 9 8 8 7 3 4 4 2 3 12 11 8 9 8 6 6
7 8 9 9 10 11 12 12 13 13 14 13 13 13 12 11 12 13 12 11 9 8 7 3 3 3 3 4 4 4 3 3 6 6 6 5 4 8
8 9 10 10 10 10 11 13 14 13 13 13 13 13 13 12 11 10 9 7 5 3 2 1 1 2 2 4 5 5 7 7 6 7 7 8 3 4
Wind_Direction
318 311 304 300 299 293 286 278 281 299 301 289 278 277 276 274 277 276 258 259 258 257 255 252 245 240 238 240 243 244 242 238 233 230 229 228 227 227
307 303 300 297 295 288 285 280 263 265 279 284 285 286 282 276 279 273 260 266 262 258 255 252 248 242 238 238 241 242 240 237 232 228 226 225 224 223
304 299 293 291 288 285 282 278 273 265 274 282 284 291 285 278 281 277 270 264 262 258 254 252 249 245 239 236 237 238 238 236 232 228 225 224 223 222
306 301 297 296 287 283 279 276 274 267 271 281 284 288 284 279 275 273 272 266 258 260 258 253 250 246 241 236 234 234 234 233 231 228 225 223 223 221
300 299 300 300 296 292 283 281 278 277 271 276 279 276 281 280 279 271 260 260 259 262 261 257 251 247 243 238 233 230 228 228 228 226 224 222 222 222
298 297 297 296 296 296 291 284 283 281 278 277 279 274 270 273 272 276 274 254 255 252 256 253 249 246 243 240 235 228 223 223 224 223 221 219 219 221
302 300 297 297 296 294 290 290 290 285 284 282 281 280 270 261 264 265 270 273 260 240 248 249 245 241 237 238 233 225 222 223 223 222 219 216 215 217
304 304 300 293 292 294 294 292 289 286 286 283 281 278 279 275 270 267 270 273 272 232 225 243 228 240 235 228 232 229 224 223 223 222 220 217 214 214
299 298 297 296 295 290 289 289 288 285 282 281 279 279 284 287 289 280 269 264 264 249 227 251 228 240 234 234 235 232 228 223 222 222 220 218 215 214
293 293 292 292 290 289 287 284 282 280 279 277 274 277 280 281 277 277 279 278 274 259 229 255 241 239 230 226 237 235 233 229 224 222 221 219 216 214
292 288 287 286 286 288 287 283 281 278 279 276 273 275 277 281 281 279 270 264 263 258 235 246 251 242 231 226 229 232 234 232 229 225 222 219 216 214
289 285 283 285 286 288 285 281 279 277 273 270 270 271 272 274 275 272 273 270 269 263 236 234 243 225 243 230 215 216 228 233 232 228 224 220 214 210
291 291 288 291 290 289 286 280 277 279 274 269 267 265 262 261 260 256 256 258 261 261 255 238 238 223 228 232 214 209 210 216 224 227 226 221 215 208
294 292 289 291 292 292 291 285 287 288 282 277 273 270 266 262 259 257 255 255 257 261 263 257 249 231 226 228 222 206 204 207 212 218 216 217 215 212
291 292 296 299 301 300 297 297 297 289 282 276 273 271 268 267 265 262 260 259 259 259 256 251 250 241 228 226 216 191 192 203 206 213 215 213 208 203
296 297 305 309 309 308 306 303 296 290 285 280 277 276 274 270 265 262 261 259 258 258 250 245 242 239 235 226 215 204 190 188 195 206 211 216 214 207
319 327 325 319 313 311 309 306 302 297 291 284 281 278 273 269 266 262 258 254 253 256 254 243 237 235 234 225 220 214 204 199 191 194 202 213 214 211
340 330 317 314 312 312 311 310 307 302 297 291 284 278 273 270 270 267 260 254 251 250 249 244 234 230 226 225 216 212 206 203 198 194 198 208 213 210
340 312 309 310 310 309 309 307 306 305 303 296 289 281 275 272 270 268 266 259 252 249 246 237 226 226 226 224 214 210 205 196 191 196 202 205 211 206
309 304 308 308 308 308 308 308 308 308 308 304 299 291 281 275 273 270 267 261 255 252 247 233 221 219 222 220 195 213 203 189 189 197 200 203 205 202
314 308 305 306 307 306 306 307 308 309 310 310 307 303 295 286 278 274 272 265 258 253 246 237 229 210 182 142 135 168 210 197 188 190 188 188 184 181
304 306 307 306 307 307 309 310 311 312 313 314 313 310 306 300 292 285 278 270 259 250 245 241 172 154 158 170 158 152 142 138 163 164 167 158 173 190
307 308 307 308 308 309 312 312 312 313 314 314 315 313 311 307 302 296 291 280 265 242 215 181 149 117 105 120 128 129 124 110 90 77 49 49 81 81